Temp
21 21 20 20 21 22 30 30 32 30 30 30 28 28 26 25 27 21 21 20 19 17 19 19 19 18 18 18 18 19 19 19 18 18 18 18 18 18 18 18 18 18 18 18 18 18 18 18 19
20 22 21 22 23 27 27 28 27 30 28 29 28 26 25 24 23 22 21 20 19 18 17 18 18 18 19 18 18 19 19 19 18 18 18 18 18 18 18 18 18 19 18 19 19 19 19 19 19
21 22 19 20 25 26 28 31 31 30 29 28 28 26 25 24 24 22 20 20 19 18 18 18 18 18 18 18 18 18 18 18 18 18 18 18 18 18 18 18 18 19 19 19 19 19 19 19 19
21 21 21 22 25 31 30 31 31 30 29 27 27 26 24 24 23 22 21 20 19 18 19 18 18 18 18 18 18 18 18 18 17 18 18 18 18 18 18 18 18 18 19 19 19 19 19 20 19
22 22 22 24 27 31 31 31 29 30 29 27 26 25 24 23 23 22 22 20 19 18 19 18 18 18 18 18 18 18 18 18 17 17 18 18 18 18 18 18 18 18 19 19 19 19 19 19 20
23 20 21 29 29 31 30 30 30 29 29 27 26 25 23 23 23 23 23 21 20 18 17 17 18 18 18 18 18 18 18 18 18 18 18 18 18 18 18 17 17 18 18 19 19 19 19 19 19
22 21 25 28 29 28 30 29 31 31 29 28 26 25 23 24 23 23 22 21 20 19 17 17 18 18 18 18 18 18 18 18 18 18 18 18 18 18 18 18 18 17 18 19 19 19 19 20 20
24 20 23 29 29 29 31 31 31 31 30 28 26 24 24 23 23 23 22 22 21 20 18 17 18 18 18 18 19 19 18 18 18 18 18 18 19 18 18 18 18 19 18 19 19 20 21 21 21
27 22 22 26 27 29 31 31 30 29 29 28 27 25 24 24 24 23 22 22 21 21 20 18 17 17 17 19 19 19 19 19 19 19 19 18 18 18 18 18 19 19 19 19 20 20 20 20 21
28 18 19 25 24 30 30 30 29 29 29 28 27 25 24 24 24 23 23 22 21 22 21 20 19 19 18 18 19 18 19 19 18 17 17 18 17 18 18 19 19 19 19 20 20 20 20 20 20
30 20 29 30 31 31 30 30 28 30 29 28 26 25 24 24 24 24 23 23 23 22 22 21 21 20 19 19 18 19 19 19 18 18 17 17 18 18 18 19 19 19 20 20 21 20 20 20 21
28 30 29 26 31 30 29 30 27 27 29 27 26 25 25 24 24 24 24 24 23 23 22 21 20 20 19 19 19 18 19 18 18 18 17 18 18 18 19 20 20 20 20 20 20 20 20 21 21
26 31 30 30 29 28 29 28 28 28 28 27 26 25 25 25 25 25 24 24 23 23 22 21 20 20 19 20 19 18 18 19 19 18 19 18 19 18 19 19 20 19 20 20 20 21 21 21 21
26 28 29 29 29 29 29 29 27 28 27 27 26 26 26 26 25 25 24 24 23 23 22 20 20 19 19 19 20 19 19 19 18 19 19 19 19 19 19 20 20 20 20 20 21 21 20 21 22
24 27 30 31 30 30 28 26 27 27 27 27 25 26 26 26 26 25 24 24 23 22 22 20 19 19 19 19 19 19 20 20 19 20 18 19 19 19 19 20 20 20 20 20 21 21 22 22 22
29 27 29 21 31 29 30 24 26 27 27 26 26 27 27 26 26 25 24 24 23 22 21 20 20 19 19 20 20 20 21 20 20 20 20 19 19 20 20 20 20 20 21 21 21 21 22 22 22
30 27 24 25 29 31 31 25 22 28 27 26 26 27 27 26 26 25 24 24 23 22 21 20 21 20 19 20 20 20 21 21 21 20 20 20 20 20 20 21 21 21 21 21 22 22 22 23 23
29 31 30 27 29 28 31 28 26 28 28 26 26 27 27 26 26 25 24 24 23 22 21 21 21 20 20 20 19 21 21 22 22 21 21 21 21 21 21 21 21 21 21 22 22 22 22 22 23
30 29 30 31 28 28 32 29 28 28 29 27 27 27 27 27 26 25 25 24 23 21 21 21 21 20 20 20 20 20 22 21 21 21 21 20 21 21 21 21 22 22 21 22 22 22 22 23 23
32 30 31 31 33 33 33 28 30 30 30 28 28 28 28 27 26 25 25 24 23 21 21 20 20 20 20 21 21 21 21 21 22 21 20 20 21 21 21 21 22 21 21 22 22 21 21 23 23
33 32 32 33 32 33 33 29 30 32 30 29 27 27 28 28 27 25 25 24 23 22 21 20 20 20 20 21 21 21 21 21 21 21 21 20 20 21 21 21 21 21 21 22 22 22 21 22 23
31 34 33 32 31 30 33 31 33 31 31 29 28 27 28 28 27 26 25 24 23 22 21 20 20 20 20 21 21 21 22 21 22 21 21 21 20 21 20 21 20 21 21 21 21 22 21 22 22
32 34 34 33 31 32 32 31 33 33 31 30 29 28 27 28 28 26 25 24 24 23 21 21 20 20 20 20 21 21 22 22 23 23 22 21 20 20 20 21 21 22 22 21 21 21 21 22 22
33 33 33 31 32 30 33 33 32 33 32 32 31 29 28 28 28 27 26 25 24 23 22 21 20 20 20 20 20 21 22 23 23 22 22 21 21 21 21 21 20 20 21 21 21 21 22 22 22
32 32 30 29 29 29 33 33 31 33 33 32 32 30 29 28 28 28 26 25 24 24 23 21 21 20 20 21 20 21 21 22 23 22 22 22 22 21 22 21 21 20 21 20 21 22 22 22 22
32 32 30 28 29 31 33 32 34 35 35 34 32 31 28 28 28 28 27 25 24 24 24 22 21 21 20 20 21 21 20 21 22 23 23 23 23 22 22 21 21 21 20 21 22 22 22 22 23
31 31 32 31 32 32 33 34 36 36 35 35 34 32 31 28 28 29 28 26 25 24 24 23 22 21 21 20 21 21 21 21 21 22 23 23 23 22 23 22 22 21 20 20 20 22 21 21 23
32 32 30 31 28 28 31 32 33 33 34 35 35 33 32 31 30 29 29 27 26 25 25 24 22 22 22 22 21 21 21 22 21 21 22 22 22 22 21 22 22 20 20 20 20 20 20 21 22
30 31 30 32 32 30 30 32 34 33 33 34 35 34 32 31 31 31 29 28 27 25 25 24 23 22 22 22 20 20 21 22 21 21 21 22 22 22 22 21 20 20 20 20 20 20 20 20 20
31 30 30 30 29 32 31 32 36 34 35 34 35 34 33 32 32 31 31 29 27 26 26 25 24 23 23 22 20 20 21 21 22 21 21 20 22 21 21 21 21 21 20 20 20 20 21 21 21
Height
1498 1498 1498 1501 1504 1490 1475 1474 1463 1474 1476 1480 1482 1488 1497 1501 1493 1525 1527 1530 1533 1534 1538 1540 1541 1543 1545 1548 1549 1551 1552 1554 1555 1556 1557 1559 1561 1561 1562 1563 1565 1567 1569 1570 1571 1571 1570 1571 1571
1497 1502 1500 1495 1496 1488 1487 1474 1481 1474 1483 1484 1490 1498 1502 1509 1510 1519 1528 1531 1534 1537 1538 1541 1543 1546 1548 1550 1551 1552 1554 1556 1557 1558 1559 1561 1563 1565 1565 1567 1568 1569 1571 1572 1572 1572 1573 1574 1575
1498 1503 1492 1494 1486 1494 1484 1469 1472 1478 1485 1489 1493 1500 1506 1515 1519 1524 1529 1534 1536 1539 1540 1542 1544 1547 1549 1551 1553 1554 1556 1558 1559 1561 1562 1564 1566 1568 1569 1570 1571 1572 1573 1574 1574 1575 1576 1576 1577
1502 1504 1500 1497 1487 1465 1472 1470 1472 1481 1488 1494 1497 1508 1515 1519 1523 1529 1532 1536 1539 1541 1542 1544 1546 1548 1551 1552 1554 1556 1558 1559 1562 1564 1565 1567 1568 1570 1571 1573 1574 1575 1576 1576 1577 1577 1578 1579 1579
1502 1487 1494 1492 1479 1463 1468 1474 1485 1483 1490 1495 1502 1512 1517 1524 1528 1532 1534 1539 1540 1542 1544 1545 1548 1550 1552 1554 1556 1558 1560 1562 1564 1566 1567 1569 1571 1572 1573 1575 1575 1577 1578 1578 1579 1580 1581 1580 1581
1494 1475 1498 1479 1475 1468 1474 1479 1481 1486 1491 1502 1507 1514 1522 1527 1530 1534 1537 1538 1542 1545 1546 1548 1550 1552 1554 1556 1558 1560 1562 1564 1566 1568 1570 1572 1573 1574 1575 1577 1578 1579 1580 1581 1582 1583 1583 1583 1584
1496 1499 1492 1478 1479 1481 1474 1480 1480 1484 1492 1503 1510 1517 1526 1528 1532 1535 1538 1540 1541 1546 1548 1550 1552 1554 1556 1558 1560 1562 1564 1566 1568 1570 1572 1574 1575 1576 1577 1579 1579 1581 1582 1584 1585 1586 1586 1587 1587
1491 1489 1497 1475 1482 1484 1476 1478 1482 1484 1494 1501 1508 1519 1525 1530 1533 1537 1540 1543 1546 1548 1551 1553 1554 1556 1558 1560 1562 1564 1566 1567 1569 1571 1573 1575 1577 1578 1580 1581 1582 1584 1585 1586 1588 1588 1589 1590 1590
1490 1500 1506 1484 1485 1480 1478 1481 1489 1493 1499 1503 1506 1514 1523 1530 1533 1538 1541 1545 1548 1550 1552 1553 1556 1559 1560 1562 1563 1565 1567 1569 1571 1573 1575 1576 1578 1580 1581 1583 1585 1586 1588 1589 1590 1590 1591 1591 1593
1488 1511 1507 1486 1484 1477 1483 1486 1492 1497 1500 1506 1512 1520 1526 1532 1534 1538 1542 1545 1548 1552 1555 1556 1558 1560 1562 1565 1565 1567 1568 1570 1572 1573 1576 1577 1580 1582 1583 1585 1587 1588 1590 1591 1592 1593 1594 1595 1594
1481 1499 1478 1474 1477 1478 1484 1488 1493 1495 1500 1509 1515 1522 1527 1532 1535 1539 1542 1545 1548 1551 1554 1557 1561 1563 1564 1565 1567 1569 1570 1571 1573 1576 1577 1579 1583 1584 1585 1587 1589 1591 1592 1593 1594 1595 1596 1595 1595
1488 1481 1479 1483 1479 1482 1488 1490 1499 1501 1501 1510 1518 1524 1528 1531 1535 1538 1542 1546 1549 1552 1555 1559 1563 1563 1564 1565 1568 1568 1572 1572 1575 1576 1577 1580 1583 1586 1587 1589 1591 1593 1594 1595 1597 1597 1599 1599 1598
1491 1480 1482 1482 1485 1488 1491 1496 1498 1504 1506 1512 1519 1525 1528 1531 1536 1539 1543 1547 1550 1553 1556 1558 1562 1564 1564 1567 1565 1567 1570 1574 1578 1579 1579 1581 1584 1587 1590 1591 1593 1594 1597 1597 1599 1600 1599 1600 1601
1490 1484 1482 1482 1486 1489 1493 1497 1502 1507 1509 1514 1521 1525 1528 1531 1534 1538 1542 1546 1551 1554 1556 1558 1562 1566 1568 1569 1571 1574 1576 1577 1578 1580 1581 1583 1585 1588 1590 1593 1594 1597 1599 1600 1601 1600 1600 1601 1603
1490 1489 1480 1480 1483 1486 1491 1502 1503 1507 1511 1515 1521 1523 1526 1530 1534 1538 1543 1546 1550 1554 1556 1559 1562 1566 1568 1571 1573 1576 1576 1579 1580 1581 1582 1584 1586 1589 1592 1595 1597 1598 1599 1600 1601 1600 1601 1603 1604
1482 1486 1485 1498 1479 1488 1489 1512 1507 1507 1511 1516 1518 1521 1524 1529 1533 1538 1542 1546 1549 1554 1555 1559 1562 1565 1567 1570 1573 1574 1577 1579 1580 1580 1582 1585 1586 1590 1594 1596 1597 1598 1600 1600 1601 1600 1601 1604 1604
1474 1496 1502 1495 1481 1482 1483 1505 1506 1506 1509 1516 1517 1519 1523 1527 1532 1537 1541 1545 1548 1552 1554 1558 1561 1564 1567 1570 1571 1575 1575 1580 1581 1581 1583 1585 1587 1589 1593 1597 1598 1598 1599 1600 1601 1602 1603 1604 1604
1487 1477 1477 1489 1481 1483 1481 1490 1498 1498 1504 1511 1515 1516 1520 1525 1530 1535 1539 1544 1547 1550 1554 1557 1560 1563 1566 1569 1571 1574 1576 1578 1581 1581 1583 1585 1588 1590 1593 1596 1598 1598 1600 1602 1602 1603 1603 1603 1604
1470 1480 1477 1471 1482 1481 1474 1481 1490 1493 1496 1505 1510 1512 1517 1521 1527 1532 1537 1541 1545 1548 1552 1556 1559 1561 1565 1568 1571 1574 1576 1578 1579 1582 1584 1586 1588 1590 1593 1595 1597 1598 1600 1600 1602 1604 1605 1604 1604
1468 1479 1470 1473 1468 1467 1465 1485 1478 1480 1484 1495 1502 1506 1512 1517 1523 1529 1534 1538 1542 1545 1550 1554 1557 1559 1564 1567 1570 1574 1576 1578 1580 1582 1585 1587 1588 1591 1592 1595 1596 1598 1599 1600 1602 1603 1604 1606 1605
1460 1467 1463 1462 1462 1461 1463 1476 1475 1469 1478 1487 1498 1503 1506 1511 1517 1525 1530 1535 1540 1543 1548 1551 1554 1558 1561 1566 1569 1572 1575 1578 1579 1581 1585 1586 1588 1591 1592 1595 1596 1598 1599 1599 1601 1602 1603 1604 1605
1468 1449 1455 1461 1474 1484 1456 1484 1458 1463 1471 1480 1491 1498 1501 1505 1512 1519 1527 1531 1536 1540 1545 1549 1553 1556 1559 1564 1567 1570 1573 1575 1577 1579 1582 1585 1587 1590 1592 1593 1594 1596 1598 1599 1600 1602 1602 1603 1604
1461 1447 1449 1454 1470 1464 1463 1473 1451 1452 1463 1470 1479 1487 1494 1500 1505 1512 1521 1528 1532 1537 1542 1545 1551 1553 1557 1561 1565 1567 1570 1573 1577 1579 1581 1583 1586 1588 1590 1591 1593 1595 1597 1599 1599 1599 1601 1602 1603
1454 1452 1452 1458 1458 1482 1457 1460 1459 1448 1452 1455 1465 1476 1485 1491 1498 1506 1515 1523 1529 1533 1538 1540 1546 1550 1554 1558 1562 1565 1568 1572 1575 1577 1579 1581 1584 1587 1589 1590 1592 1593 1595 1595 1597 1597 1599 1600 1601
1453 1459 1479 1488 1487 1482 1444 1451 1449 1445 1445 1449 1456 1466 1477 1486 1492 1499 1507 1516 1523 1528 1532 1535 1539 1545 1551 1554 1558 1561 1565 1569 1573 1574 1577 1579 1581 1583 1586 1588 1589 1591 1592 1593 1594 1594 1596 1598 1599
1449 1455 1469 1492 1482 1465 1438 1455 1437 1427 1433 1438 1446 1456 1471 1479 1486 1495 1500 1508 1517 1524 1528 1531 1535 1541 1546 1550 1554 1558 1561 1565 1569 1572 1575 1577 1579 1579 1581 1584 1587 1589 1590 1590 1591 1592 1594 1595 1596
1446 1452 1444 1457 1444 1453 1439 1429 1419 1418 1426 1434 1439 1449 1459 1470 1478 1485 1493 1501 1510 1519 1524 1528 1531 1537 1541 1546 1550 1554 1558 1561 1566 1570 1573 1574 1577 1578 1580 1581 1583 1586 1588 1589 1589 1590 1591 1592 1593
1437 1436 1457 1450 1478 1483 1452 1439 1443 1427 1430 1431 1435 1441 1453 1461 1469 1477 1485 1493 1502 1512 1520 1526 1528 1532 1537 1541 1545 1550 1555 1559 1562 1565 1569 1572 1575 1577 1576 1577 1580 1582 1585 1586 1588 1589 1589 1590 1591
1438 1442 1442 1439 1444 1463 1468 1444 1416 1421 1428 1428 1432 1437 1447 1455 1464 1470 1478 1486 1495 1504 1513 1520 1526 1528 1533 1538 1543 1546 1549 1555 1559 1563 1565 1568 1572 1574 1574 1576 1577 1578 1581 1583 1584 1585 1587 1587 1588
1426 1436 1441 1451 1457 1439 1442 1436 1397 1414 1421 1422 1432 1434 1439 1448 1457 1465 1472 1478 1488 1497 1506 1513 1520 1523 1528 1533 1539 1542 1546 1550 1554 1558 1561 1565 1568 1570 1571 1573 1575 1576 1578 1579 1581 1582 1582 1583 1584
Wind_Speed
5 3 9 8 3 5 17 14 14 17 16 21 28 20 20 17 10 14 22 21 23 16 15 16 15 15 15 15 14 13 12 13 13 13 13 14 15 15 15 15 16 18 20 19 19 20 19 21 23
6 2 7 5 4 3 3 22 3 18 24 22 21 31 28 25 31 29 25 19 18 17 13 15 15 15 14 13 11 11 11 12 12 13 13 14 14 14 14 14 16 17 18 17 17 17 19 19 20
9 1 9 4 3 9 7 16 15 21 17 15 18 24 20 21 20 25 27 24 18 20 14 16 15 15 14 13 12 11 12 13 13 13 13 14 14 14 13 14 15 16 16 17 16 17 16 14 12
1 5 8 3 3 21 14 13 17 21 20 21 23 17 24 23 26 23 20 19 25 18 12 16 16 15 13 14 14 13 14 14 13 13 13 14 15 14 13 13 14 15 16 16 16 15 15 15 15
7 6 3 6 9 20 18 11 20 13 15 25 29 20 26 23 23 21 24 23 18 14 16 18 16 16 15 15 16 16 15 14 14 13 14 14 15 14 13 13 13 13 15 15 16 16 17 17 19
6 9 3 10 18 17 15 8 11 16 21 26 25 26 26 23 21 20 17 22 21 19 15 17 17 16 16 15 15 16 14 13 13 13 14 14 15 15 15 13 12 13 14 15 15 17 18 19 21
4 1 2 13 15 6 15 7 3 15 25 21 25 22 23 22 20 20 22 21 18 20 14 16 17 16 16 16 15 15 14 13 12 12 13 14 13 13 14 13 12 14 14 15 16 17 17 19 22
11 4 9 15 9 13 7 14 8 19 18 21 23 16 21 22 21 20 20 22 23 16 18 15 14 15 14 15 15 14 13 12 11 11 11 11 11 11 12 11 12 14 14 15 15 17 19 21 20
10 4 7 5 2 10 13 15 14 14 16 11 19 28 26 25 22 22 21 19 16 20 16 14 14 16 12 14 14 13 11 10 11 12 12 12 9 11 11 11 12 15 14 14 19 20 22 22 22
2 4 10 8 9 13 9 18 18 13 14 13 25 27 26 23 22 21 20 20 18 18 17 14 16 11 14 10 12 11 12 11 11 12 13 11 11 8 4 10 12 14 16 21 17 14 10 9 10
5 3 11 14 12 15 17 18 6 10 16 20 27 28 27 23 21 20 18 19 19 15 21 14 15 16 16 8 10 7 10 12 10 8 14 12 11 6 4 12 13 15 19 18 16 12 11 12 6
5 4 14 16 10 14 13 5 21 9 19 21 24 25 25 23 20 20 19 19 19 16 18 20 15 20 13 11 14 13 11 10 10 12 16 16 16 14 5 13 16 15 14 9 7 11 9 11 12
3 8 2 10 13 13 11 11 12 9 15 22 24 23 22 22 19 18 18 18 19 17 18 19 16 17 10 10 11 11 7 17 8 12 17 19 18 15 12 10 12 9 7 4 7 9 7 7 6
11 16 5 5 15 10 12 12 10 11 17 24 23 22 21 21 20 19 19 20 19 18 16 16 12 16 14 11 16 11 15 13 12 17 17 14 16 18 18 11 8 12 10 6 5 7 4 4 7
10 16 14 14 13 10 13 5 11 15 19 23 22 21 21 20 20 19 19 20 20 19 17 17 15 15 16 16 15 14 12 18 15 14 13 15 11 17 15 12 11 10 13 9 8 9 9 8 5
16 10 6 10 9 8 10 5 12 19 21 22 22 22 21 20 20 19 19 19 20 19 19 18 14 14 13 19 14 13 20 13 10 9 16 13 22 18 12 14 11 10 12 12 6 3 4 5 2
10 6 4 1 17 10 10 9 3 21 22 21 21 22 21 21 20 20 20 20 20 22 19 18 18 15 16 12 9 12 9 16 10 5 11 17 22 20 15 12 9 11 6 5 2 2 5 4 2
11 14 14 8 9 16 11 14 18 25 25 24 24 24 23 23 23 22 22 21 21 22 20 20 19 19 15 16 12 12 16 17 12 12 9 14 20 18 12 14 10 11 9 6 6 6 4 7 6
5 14 18 16 11 14 11 18 19 25 25 26 27 26 25 25 23 23 24 23 23 21 21 21 21 22 19 18 16 16 20 12 15 18 7 15 13 19 13 6 14 9 4 12 7 7 6 4 4
15 15 21 6 12 12 6 4 21 22 22 31 29 28 28 26 26 25 26 26 25 25 24 23 22 22 21 19 18 15 13 14 12 9 10 11 10 18 14 8 16 3 7 9 6 10 6 1 4
23 18 20 16 8 8 11 15 25 21 25 29 27 27 29 29 29 28 28 28 27 27 27 26 22 21 24 17 15 17 16 13 13 16 12 15 11 16 11 15 11 9 6 3 5 10 4 4 2
22 16 18 7 8 10 17 11 15 19 18 25 29 31 30 30 31 32 29 29 29 28 27 25 24 20 26 19 17 20 20 18 13 15 13 15 16 16 11 18 12 14 9 9 3 8 7 6 2
22 23 19 12 13 11 13 10 15 21 20 24 29 36 35 31 32 34 32 31 30 29 28 27 27 22 24 22 18 23 23 15 16 14 18 10 11 10 9 13 16 14 15 6 10 10 12 7 5
23 23 15 12 18 11 21 14 17 18 21 23 32 39 39 36 34 35 34 33 30 32 30 29 28 25 27 27 21 25 24 18 16 18 18 14 10 15 13 12 11 10 14 13 14 17 12 13 9
23 21 14 13 12 14 19 18 7 4 10 18 19 37 37 33 34 35 38 37 35 34 34 33 30 31 29 29 24 25 25 19 19 18 15 14 17 14 18 17 14 11 12 11 10 14 14 12 13
25 23 16 17 15 16 20 17 12 19 22 21 34 34 40 38 36 37 39 38 38 35 34 36 33 30 32 28 32 28 24 21 16 21 13 16 16 23 18 16 13 14 11 12 10 10 8 12 11
26 22 23 26 22 15 14 20 16 13 14 14 25 29 37 47 41 41 40 39 39 37 36 35 33 32 32 32 30 32 30 26 17 17 22 20 13 8 15 14 13 12 13 11 11 9 8 11 10
27 18 20 16 21 15 21 10 12 14 12 14 13 27 31 31 36 40 39 41 41 39 35 35 33 33 32 32 32 29 33 31 28 19 20 22 13 13 12 15 11 15 13 14 13 11 10 10 9
17 20 23 18 19 16 15 14 19 14 14 13 15 27 33 34 31 35 39 42 42 39 37 36 34 35 33 31 32 31 30 33 28 27 23 24 18 17 19 15 12 14 15 16 16 14 14 15 14
28 24 26 16 19 16 15 15 10 15 14 10 16 19 26 30 33 29 32 41 44 40 38 38 37 37 32 30 32 31 30 29 35 33 30 24 27 19 21 22 17 17 17 18 19 18 15 16 14
Wind_Direction
162 135 334 283 260 221 101 98 101 79 76 69 81 70 68 34 60 106 134 122 116 131 132 130 126 119 118 117 118 109 98 98 100 100 107 108 110 103 99 104 102 99 103 102 102 97 97 92 91
127 293 286 260 240 73 58 88 270 86 56 76 73 80 74 81 96 117 121 127 124 119 133 130 129 124 121 120 117 113 108 107 109 106 108 111 114 114 105 102 98 97 99 97 100 94 90 92 92
138 195 353 306 270 123 136 96 94 89 84 76 79 69 88 116 109 113 121 119 125 120 142 130 128 131 122 121 119 118 112 112 111 107 111 109 110 110 107 106 98 97 97 95 95 93 93 95 93
330 206 232 251 300 98 101 104 116 115 85 98 97 81 82 98 114 126 123 127 126 126 136 123 124 129 125 118 115 116 116 112 108 112 112 109 108 115 106 106 106 99 98 97 96 96 91 85 86
249 266 246 221 180 80 89 83 93 85 107 99 102 107 100 110 119 125 126 127 120 122 132 126 124 125 124 120 120 121 119 118 116 113 111 109 111 111 114 113 107 104 105 102 98 89 84 84 88
253 107 252 87 91 94 93 91 95 138 97 102 109 107 110 125 124 132 132 134 129 125 131 124 124 124 124 125 123 124 122 117 121 115 112 109 110 111 109 112 119 116 114 106 95 89 83 83 90
248 151 294 113 103 116 102 113 164 107 113 128 114 115 129 131 133 130 127 118 123 123 133 124 126 129 127 127 126 125 123 122 120 116 115 114 117 118 117 115 120 118 115 103 96 81 76 81 93
270 121 316 121 123 101 119 95 100 102 105 125 132 142 147 141 135 134 131 125 125 128 130 138 130 121 130 128 126 124 128 133 131 124 121 120 116 109 105 112 117 118 114 102 94 81 80 80 85
292 60 331 306 94 140 94 98 84 95 123 109 99 139 140 142 141 133 129 129 131 134 138 128 124 124 141 133 124 126 129 130 126 123 120 117 85 106 121 107 114 119 110 103 104 99 97 90 82
239 118 235 130 234 106 106 104 125 112 121 123 120 127 140 144 147 139 146 137 152 136 143 135 139 130 112 135 121 114 121 121 121 129 138 134 156 123 125 125 121 119 107 110 97 80 77 77 82
259 210 197 132 114 115 134 114 54 129 128 129 134 141 147 149 149 148 147 150 144 152 148 135 147 146 141 139 119 106 131 97 120 139 125 136 154 160 184 140 128 119 115 103 81 61 59 49 95
297 189 58 314 127 93 90 75 100 70 118 138 144 149 150 154 154 156 150 151 148 149 145 141 136 131 145 154 156 162 120 144 97 121 131 137 147 152 141 128 121 113 106 92 59 88 76 79 98
257 258 205 132 106 107 124 91 92 101 125 138 146 154 157 158 157 159 152 154 150 148 146 140 157 148 148 129 162 138 157 133 137 106 119 124 142 150 135 129 114 115 110 94 116 131 130 132 73
215 274 191 187 138 148 121 132 101 128 138 143 150 161 164 160 161 157 159 158 156 157 151 146 146 156 157 146 132 133 116 129 146 119 100 107 118 125 131 135 129 133 123 127 141 110 46 85 103
177 248 202 164 157 154 98 53 147 148 148 147 159 167 169 165 165 163 164 159 163 163 162 156 163 149 157 160 151 136 144 142 145 124 127 147 154 129 142 140 145 138 163 169 148 129 112 109 106
214 201 211 340 187 165 152 174 227 161 159 155 178 172 171 171 168 169 167 166 164 166 176 158 161 165 140 154 132 132 134 152 127 138 140 127 135 131 135 138 150 183 145 107 108 104 54 114 160
254 130 150 226 303 178 183 118 239 172 168 168 194 177 173 174 169 170 171 173 169 171 176 163 173 167 160 169 166 152 141 150 148 131 143 141 131 139 163 150 168 132 125 197 74 89 126 133 117
249 241 193 172 224 227 179 182 187 180 185 175 198 182 182 177 177 176 176 175 171 175 179 163 172 172 169 156 170 140 162 150 153 172 141 149 143 143 126 172 169 149 173 159 159 167 200 75 335
153 306 255 193 208 250 219 154 176 184 194 176 196 186 189 183 179 176 178 176 173 174 176 174 172 179 172 160 163 157 146 135 165 175 163 144 166 149 140 196 174 140 155 179 203 185 122 73 331
216 247 267 207 188 231 203 101 190 180 187 178 191 188 193 186 181 178 178 177 177 178 178 179 182 188 169 161 159 178 175 171 185 153 156 172 163 161 137 170 149 156 209 223 214 186 213 344 312
256 221 264 192 145 234 234 205 214 180 179 178 194 197 196 191 184 178 179 179 180 180 182 184 187 192 165 172 176 180 175 189 181 193 173 171 176 173 160 168 190 197 162 193 179 175 181 104 291
253 231 240 158 209 252 217 244 214 170 173 174 190 196 204 195 185 178 184 181 182 183 185 190 187 194 169 182 188 189 182 176 189 157 182 190 194 181 194 193 188 190 181 179 196 206 199 184 99
251 262 244 273 216 246 218 232 203 181 178 177 187 190 200 199 193 181 188 188 186 184 184 194 190 198 178 179 190 182 185 183 179 199 183 169 174 176 208 200 208 200 193 207 202 212 218 210 215
254 257 255 263 275 262 257 220 286 181 192 186 187 187 191 197 192 186 186 187 191 186 187 194 193 199 184 189 184 192 176 177 181 178 171 178 199 188 203 230 210 198 191 229 222 225 221 216 222
227 245 246 217 249 246 248 245 178 158 158 183 184 179 186 190 196 186 181 185 192 191 189 191 199 196 194 192 193 188 195 198 190 186 174 176 215 213 191 213 222 205 213 226 225 222 229 227 236
231 229 242 235 222 229 228 244 240 181 176 189 181 179 182 192 191 196 184 184 191 196 192 189 203 201 198 197 198 195 202 201 182 200 190 199 212 220 204 210 223 205 231 233 229 231 226 244 252
240 228 233 253 256 266 251 213 219 202 167 176 176 170 182 187 193 191 187 186 190 197 196 193 205 209 206 200 204 201 201 198 190 203 198 201 211 207 215 225 238 229 213 239 235 232 229 236 248
232 242 222 240 254 248 273 234 243 154 180 195 172 166 179 188 191 191 187 185 189 193 200 198 205 214 215 211 209 210 207 203 199 205 210 209 202 202 211 234 241 209 205 228 240 230 248 263 269
212 234 251 253 236 253 244 260 194 161 216 190 186 174 176 182 194 190 186 187 187 190 197 198 204 213 220 218 210 215 215 211 206 208 211 215 207 220 227 224 218 212 210 222 237 236 222 245 254
229 219 236 246 236 247 261 262 178 168 168 87 211 170 178 182 188 194 192 185 183 188 194 199 203 206 217 219 206 218 220 221 218 215 213 216 220 219 226 231 232 220 218 225 234 241 223 247 263